Weather History for Melbourne Airport, VC

Change the Weather History Date:

Monday, February 18, 2013

  Actual Average Record
Temperature  
Mean Temperature 81 °F -  
Max Temperature 96 °F 74 °F 102 °F (1997)
Min Temperature 66 °F 54 °F 50 °F (1999)
Cooling Degree Days 16    
Growing Degree Days 31 (Base 50)    
Moisture  
Dew Point 48 °F    
Average Humidity 30    
Maximum Humidity 56    
Minimum Humidity 9    
Precipitation  
Precipitation 0.00 in 0.05 in - ()
Sea Level Pressure  
Sea Level Pressure 29.88 in    
Wind  
Wind Speed 15 mph ()    
Max Wind Speed 34 mph    
Max Gust Speed 45 mph    
Visibility 18.6 miles    
Events      
Averages and records for this station are not official NWS values.
T = Trace of Precipitation, MM = Missing Value Source: Averaged Metar Reports

Daily Weather History Graph

Daily Weather History Graph

Search for Another Location

Airport:

Trip Planner

Search our weather history database for the weather conditions in past years. The results will help you decide how hot, cold, wet, or windy it might be!

Date:

Astronomy

Feb. 18, 2013 Rise Set
Actual Time 6:53 AM EST 8:15 PM EST
Civil Twilight 6:26 AM EST 8:42 PM EST
Nautical Twilight 5:53 AM EST 9:15 PM EST
Astronomical Twilight 5:18 AM EST 9:49 PM EST
Moon 2:36 PM EST (2/18) 12:02 AM EST (2/18)
Length of Visible Light 14h 16m
Length of Day
13h 21m
First Quarter, 52% of the Moon is Illuminated
Feb 18
First Quarter
Feb 26
Full
Mar 5
Last Quarter
Mar 12
New
Mar 20
First Quarter

Hourly Weather History & Observations

Time (EST) Temp. Dew Point Humidity Pressure Visibility Wind Dir Wind Speed Gust Speed Precip Events Conditions
12:00 AM 73 °F 51 °F 35% 29.96 in 19 mi WNW 6.9 mph - -   Partly Cloudy
12:00 AM 73.4 °F 51.8 °F 47% 29.95 in - WNW 6.9 mph - N/A   Clear
12:30 AM 71.6 °F 51.8 °F 50% 29.95 in - NNW 3.5 mph - N/A   Clear
1:00 AM 71.6 °F 51.8 °F 50% 29.95 in - North 4.6 mph - N/A   Clear
1:30 AM 68.0 °F 51.8 °F 56% 29.95 in - North 6.9 mph - N/A   Clear
2:00 AM 69 °F 51 °F 42% 29.93 in - North 6.9 mph - -  
2:00 AM 69.8 °F 51.8 °F 53% 29.92 in - North 6.9 mph - N/A   Clear
2:30 AM 68.0 °F 51.8 °F 56% 29.92 in - North 8.1 mph - N/A   Clear
3:00 AM 69 °F 51 °F 41% 29.92 in 19 mi North 11.5 mph - -   Partly Cloudy
3:00 AM 69.8 °F 50.0 °F 49% 29.92 in - North 11.5 mph - N/A   Clear
3:30 AM 69.8 °F 50.0 °F 49% 29.92 in - North 11.5 mph - N/A   Clear
4:00 AM 69.8 °F 50.0 °F 49% 29.92 in - North 11.5 mph - N/A   Clear
4:30 AM 68.0 °F 50.0 °F 52% 29.92 in - North 9.2 mph - N/A   Clear
5:00 AM 69 °F 50 °F 40% 29.91 in - North 12.7 mph - -  
5:00 AM 69.8 °F 50.0 °F 49% 29.92 in - North 12.7 mph - N/A   Clear
5:30 AM 68.0 °F 50.0 °F 52% 29.92 in - North 11.5 mph - N/A   Clear
6:00 AM 73 °F 47 °F 28% 29.91 in 19 mi North 16.1 mph - -   Partly Cloudy
6:00 AM 73.4 °F 46.4 °F 38% 29.92 in - North 16.1 mph - N/A   Clear
6:30 AM 75.2 °F 48.2 °F 38% 29.92 in - North 19.6 mph - N/A   Clear
7:00 AM 73.4 °F 48.2 °F 41% 29.92 in - North 23.0 mph - N/A   Clear
7:30 AM 73.4 °F 50.0 °F 44% 29.92 in - North 24.2 mph - N/A   Clear
8:00 AM 76 °F 50 °F 29% 29.93 in - North 27.6 mph - -  
8:00 AM 75.2 °F 50.0 °F 41% 29.92 in - North 27.6 mph - N/A   Clear
8:35 AM 77.0 °F 50.0 °F 39% 29.95 in - North 32.2 mph 43.7 mph N/A   Clear
9:00 AM 78 °F 50 °F 27% 29.93 in 16 mi North 34.5 mph - -   Haze
9:00 AM 78.8 °F 50.0 °F 36% 29.92 in - North 34.5 mph - N/A   Clear
9:11 AM 78.8 °F 50.0 °F 36% 29.95 in - North 33.4 mph 44.9 mph N/A   Clear
9:30 AM 78.8 °F 50.0 °F 36% 29.92 in - North 34.5 mph - N/A   Clear
10:00 AM 80.6 °F 50.0 °F 34% 29.92 in - North 33.4 mph - N/A   Clear
10:30 AM 82.4 °F 48.2 °F 30% 29.92 in - North 31.1 mph - N/A   Clear
11:00 AM 85 °F 49 °F 18% 29.93 in - North 28.8 mph - -  
11:00 AM 86.0 °F 48.2 °F 27% 29.92 in - North 28.8 mph - N/A   Clear
11:30 AM 86.0 °F 48.2 °F 27% 29.92 in - North 26.5 mph - N/A   Clear
11:46 AM 87.8 °F 48.2 °F 25% 29.92 in - North 25.3 mph 36.8 mph N/A   Clear
12:00 PM 89 °F 48 °F 15% 29.91 in 19 mi North 26.5 mph - -   Partly Cloudy
12:00 PM 89.6 °F 48.2 °F 24% 29.92 in - North 26.5 mph - N/A   Clear
12:30 PM 89.6 °F 48.2 °F 24% 29.89 in - North 24.2 mph - N/A   Clear
1:00 PM 93.2 °F 46.4 °F 20% 29.89 in - North 24.2 mph - N/A   Clear
1:16 PM 95.0 °F 46.4 °F 19% 29.89 in - NNW 19.6 mph 31.1 mph N/A   Clear
1:30 PM 93.2 °F 46.4 °F 20% 29.86 in - North 21.9 mph 34.5 mph N/A   Clear
2:00 PM 96 °F 45 °F 10% 29.87 in - North 21.9 mph - -  
2:00 PM 95.0 °F 44.6 °F 18% 29.86 in - North 21.9 mph - N/A   Clear
2:06 PM 93.2 °F 44.6 °F 19% 29.86 in - North 18.4 mph 29.9 mph N/A   Clear
2:13 PM 93.2 °F 44.6 °F 19% 29.86 in - North 18.4 mph 32.2 mph N/A   Clear
2:30 PM 95.0 °F 46.4 °F 19% 29.86 in - North 20.7 mph - N/A   Clear
3:00 PM 95 °F 45 °F 10% 29.86 in 19 mi North 19.6 mph - -   Partly Cloudy
3:00 PM 95.0 °F 44.6 °F 18% 29.86 in - North 19.6 mph - N/A   Clear
3:30 PM 95.0 °F 46.4 °F 19% 29.83 in - North 17.3 mph - N/A   Clear
4:00 PM 96.8 °F 44.6 °F 17% 29.83 in - North 15.0 mph - N/A   Clear
4:11 PM 95.0 °F 44.6 °F 18% 29.83 in - North 17.3 mph 31.1 mph N/A   Clear
4:30 PM 95.0 °F 44.6 °F 18% 29.83 in - NNW 15.0 mph - N/A   Clear
5:00 PM 96 °F 44 °F 9% 29.82 in - North 13.8 mph - -  
5:00 PM 96.8 °F 44.6 °F 17% 29.83 in - North 13.8 mph 27.6 mph N/A   Clear
5:30 PM 95.0 °F 42.8 °F 16% 29.80 in - North 16.1 mph - N/A   Clear
6:00 PM 94 °F 43 °F 10% 29.81 in 19 mi North 16.1 mph - -   Partly Cloudy
6:00 PM 95.0 °F 42.8 °F 16% 29.80 in - North 16.1 mph - N/A   Clear
6:30 PM 93.2 °F 42.8 °F 17% 29.80 in - North 15.0 mph - N/A   Clear
7:00 PM 93.2 °F 44.6 °F 19% 29.80 in - North 15.0 mph - N/A   Clear
7:30 PM 91.4 °F 44.6 °F 20% 29.80 in - North 12.7 mph - N/A   Clear
8:00 PM 89 °F 46 °F 14% 29.81 in - North 11.5 mph - -  
8:00 PM 89.6 °F 46.4 °F 22% 29.80 in - North 11.5 mph - N/A   Clear
8:30 PM 87.8 °F 46.4 °F 24% 29.80 in - North 13.8 mph - N/A   Clear
9:00 PM 86 °F 48 °F 17% 29.82 in 19 mi NNE 13.8 mph - -   Partly Cloudy
9:00 PM 86.0 °F 48.2 °F 27% 29.83 in - NNE 13.8 mph - N/A   Clear
9:30 PM 86.0 °F 48.2 °F 27% 29.83 in - NNE 16.1 mph - N/A   Clear
10:00 PM 84.2 °F 48.2 °F 29% 29.83 in - North 18.4 mph - N/A   Clear
10:30 PM 82.4 °F 48.2 °F 30% 29.83 in - North 17.3 mph - N/A   Clear
11:00 PM 82 °F 49 °F 21% 29.82 in - North 18.4 mph - -  
11:00 PM 82.4 °F 48.2 °F 30% 29.83 in - North 18.4 mph - N/A   Clear
11:19 PM 82.4 °F 48.2 °F 30% 29.83 in - North 17.3 mph 29.9 mph N/A   Clear
11:30 PM 82.4 °F 50.0 °F 32% 29.80 in - North 18.4 mph - N/A   Clear